Location: Unspecified
(47.5840°N, 122.3000°W)
Time: 18:10:14
(UTC+00:00)

IRIDIUM 114 - Pass Details

Date: 23 March 2026
Orbit: 776 x 779 km, 86.4° (Epoch: 14 April)

Event Time Altitude Azimuth Distance (km) Brightness Sun altitude
Exits shadow 06:25:53 - 250° (WSW) 2,938 7.5 -35.8°
Reaches altitude 10° 06:29:03 10° 277° (W) 2,335 7.2 -36.1°
Maximum altitude 06:30:35 11° 294° (WNW) 2,253 7.3 -36.2°
Drops below altitude 10° 06:32:07 10° 312° (NW) 2,339 7.5 -36.4°
Sets 06:36:30 0° 346° (NNW) 3,273 8.4 -36.8°
